Wind_Speed
14 14 14 15 15 15 15 16 16 16 16 16 17 17 17 17 18 18 19 19 20 20 21 21 21 22 22 22 23 22 23 23 24 25 26 25 26 26 27 28 30 31 33
16 16 16 17 18 18 19 19 19 19 20 20 20 20 20 20 20 21 21 21 22 22 23 23 23 23 24 24 24 24 24 25 25 26 27 27 27 28 28 29 30 31 33
18 18 19 20 21 21 22 22 22 23 22 22 22 22 23 23 23 23 23 23 24 24 25 25 25 26 26 26 26 26 26 26 27 27 28 29 30 30 30 30 30 31 33
19 20 21 22 23 24 24 25 25 25 24 24 24 25 25 25 25 26 26 26 26 26 27 27 27 27 27 28 28 28 28 29 28 29 29 30 31 31 31 31 31 32 32
21 22 23 24 25 25 26 26 27 26 26 26 26 27 27 27 27 27 27 27 28 28 29 29 29 29 29 29 29 30 30 30 30 31 31 31 32 32 32 32 33 33 33
23 24 25 25 26 27 27 28 28 28 28 28 28 28 29 29 29 29 29 30 30 30 30 31 31 31 30 31 31 32 32 32 33 33 33 33 33 33 34 34 34 34 34
25 26 26 27 27 28 28 29 29 29 29 29 30 30 30 30 31 31 31 32 32 32 32 33 33 33 33 33 33 34 34 35 35 35 34 35 35 35 36 35 35 35 35
26 27 28 28 28 29 29 30 30 31 31 31 32 32 32 32 33 33 34 34 34 34 34 35 35 35 36 36 36 37 37 37 37 37 37 36 37 37 37 37 37 37 36
28 29 28 29 29 30 31 31 32 32 33 33 33 33 34 34 35 36 36 37 37 37 37 38 38 38 39 40 40 39 39 39 39 39 39 39 38 39 39 39 38 38 37
31 31 31 31 31 32 33 34 34 34 34 35 36 36 37 37 38 39 40 40 40 40 41 41 41 41 42 43 43 42 42 41 42 42 41 41 41 41 40 40 40 39 39
34 34 34 35 35 35 35 35 36 36 36 37 38 39 40 40 41 42 42 43 43 44 44 44 44 44 44 45 46 46 45 45 44 44 43 43 43 42 42 41 41 41 40
36 36 37 37 37 37 37 37 38 38 39 39 41 42 42 43 44 44 45 46 47 48 47 47 48 48 47 48 48 48 48 48 47 46 46 45 45 44 43 43 42 42 41
36 37 38 38 39 38 39 39 40 40 41 42 43 43 45 46 47 47 48 49 51 51 51 51 51 51 50 50 50 50 50 50 49 48 47 47 46 45 45 44 43 43 42
36 37 38 38 39 39 40 41 43 44 44 45 46 47 48 49 50 51 52 53 53 54 55 55 54 54 54 54 53 52 52 51 51 50 49 48 47 46 45 45 44 44 42
38 38 38 39 39 41 42 43 44 45 46 47 48 49 51 52 53 54 55 56 57 57 58 58 57 57 57 56 56 55 53 52 51 50 49 48 47 46 45 45 44 43 43
37 37 38 39 40 42 43 44 45 47 48 50 51 53 54 56 57 58 58 59 60 61 61 60 60 59 58 57 56 55 54 52 50 49 48 46 46 45 45 44 44 43 42
38 39 40 41 43 44 46 47 49 50 51 52 54 55 57 58 60 61 61 62 62 63 63 62 61 60 58 58 56 55 53 52 50 49 48 47 45 45 44 43 43 43 42
39 40 42 43 45 47 48 49 51 52 53 55 56 58 59 60 61 62 63 63 63 63 62 61 60 59 57 56 54 53 52 51 49 47 46 45 44 44 43 42 42 41 40
41 42 43 45 47 49 50 52 53 55 56 58 59 60 62 63 63 64 63 63 62 61 60 59 57 55 54 52 51 50 49 48 46 45 43 43 42 42 41 40 39 39 39
43 44 46 48 49 51 53 54 56 58 59 60 61 62 62 62 62 61 60 59 58 57 55 54 52 50 49 48 47 45 45 44 43 42 41 40 40 39 38 38 37 37 36
46 48 49 51 52 54 55 57 58 59 60 60 60 60 60 59 58 56 55 54 52 51 49 48 46 45 43 42 41 40 39 38 38 37 36 36 36 35 35 35 35 34 34
49 51 52 54 55 56 56 57 58 58 58 58 58 57 56 54 53 51 49 48 46 45 43 42 40 38 37 36 35 35 34 33 32 32 32 31 32 32 31 32 32 32 32
51 53 54 55 55 56 56 56 56 55 55 54 53 52 50 49 47 45 44 43 41 39 38 37 36 34 33 31 31 31 30 29 28 28 28 28 28 29 30 30 30 30 30
52 53 53 54 53 53 53 52 52 51 50 48 47 46 44 42 41 40 38 36 35 34 32 32 30 29 28 27 26 26 25 25 25 25 25 25 25 26 27 28 27 27 27
51 51 51 51 50 49 48 48 47 45 44 43 42 41 39 37 36 35 33 32 30 29 28 27 25 24 23 23 23 23 22 22 22 23 23 23 23 24 25 25 25 26 26
47 47 46 46 45 44 44 42 41 40 39 38 37 35 34 32 31 30 29 27 25 24 24 23 22 20 19 19 19 20 19 19 19 20 20 21 21 22 23 23 23 24 24
Wind_Direction
237 238 242 246 250 253 257 260 263 266 269 272 277 281 285 289 293 296 299 301 303 305 306 306 306 306 306 304 303 301 300 299 298 296 294 290 286 283 279 276 273 270 268
244 245 249 253 256 259 261 263 266 269 272 275 278 281 284 288 290 293 296 299 300 302 304 303 303 303 304 303 301 300 299 298 298 296 295 294 291 288 285 280 276 273 270
248 250 254 257 260 263 264 266 269 271 273 276 279 281 285 288 290 292 295 296 297 299 301 301 301 301 301 301 300 299 298 297 297 296 295 294 293 291 288 285 281 277 273
254 255 258 260 262 265 266 268 271 273 274 276 279 281 284 287 290 292 293 296 297 298 299 300 300 300 300 300 299 298 297 296 296 296 295 294 293 291 289 287 284 281 278
259 260 261 263 265 266 268 270 272 273 275 278 280 283 285 287 290 291 293 295 296 298 298 298 298 298 298 298 298 298 298 297 296 296 295 294 293 292 290 288 286 284 282
263 264 264 266 268 269 269 271 272 274 276 279 281 283 285 288 290 291 292 294 295 296 297 297 297 297 296 297 297 297 297 296 296 296 295 295 293 292 290 289 287 285 283
264 265 267 268 270 271 272 272 273 275 278 280 282 284 286 289 290 291 291 292 293 294 295 296 296 296 295 295 295 295 296 295 295 295 295 294 293 292 291 290 288 286 284
268 267 268 270 271 273 274 275 276 277 279 280 282 285 287 289 290 290 290 291 292 293 293 294 294 294 294 294 294 294 294 295 295 294 294 293 293 291 291 289 288 286 284
269 269 270 271 272 273 275 275 277 278 280 281 284 285 286 288 289 290 290 291 291 292 292 292 292 292 293 293 293 293 293 293 293 294 293 292 291 291 290 289 287 285 283
269 269 270 271 272 274 275 276 277 279 280 282 284 285 287 288 289 289 290 291 291 291 292 291 291 290 290 291 291 291 292 292 292 292 292 291 290 290 289 287 286 284 282
269 270 271 272 273 275 276 278 279 280 281 282 283 286 287 287 288 289 290 290 290 290 291 291 290 289 289 289 289 290 290 290 290 290 290 289 289 288 287 286 285 283 282
268 269 271 272 273 274 276 278 279 280 281 282 284 286 286 287 288 288 289 289 289 289 290 290 289 288 287 288 288 288 288 288 288 288 288 288 287 286 286 285 283 281 280
267 269 271 273 273 275 277 278 279 281 282 283 285 285 286 287 287 288 288 289 289 289 289 289 289 288 287 287 287 287 287 287 287 287 287 286 285 284 284 283 282 280 279
271 271 273 275 276 278 280 280 281 282 284 285 285 286 287 287 288 288 288 289 289 288 288 289 288 287 287 287 287 287 286 285 285 285 285 284 283 282 281 281 280 279 278
274 275 277 278 279 280 282 283 283 284 285 285 286 286 287 288 288 288 288 288 288 288 288 288 287 286 286 286 286 286 285 284 284 284 283 282 281 280 280 279 278 278 277
278 278 279 281 282 283 283 284 284 285 287 287 288 288 288 288 288 288 288 287 287 287 287 287 287 285 285 284 284 284 283 283 282 282 282 281 280 279 278 277 276 276 276
280 281 282 284 285 286 287 287 288 288 288 288 288 288 288 288 288 288 287 287 288 288 287 287 286 285 284 283 283 282 281 280 280 280 279 278 278 277 276 274 274 275 275
284 285 286 286 287 287 288 288 289 289 289 289 289 289 289 289 289 289 288 288 288 288 288 287 287 286 284 283 281 280 278 278 278 277 276 276 275 274 273 272 272 273 274
286 287 287 288 288 289 289 289 290 290 290 290 290 289 289 289 289 289 289 289 289 289 288 287 286 285 284 282 280 279 277 276 276 273 272 272 272 271 271 271 271 271 271
287 288 289 290 290 290 291 291 291 291 291 290 290 290 291 291 291 291 290 290 289 289 288 287 286 285 283 282 280 278 276 274 274 272 270 269 269 269 268 269 269 270 271
290 290 291 292 292 292 292 292 292 292 292 292 292 292 292 292 291 291 290 290 290 289 288 287 286 285 283 281 279 278 275 273 271 271 269 267 266 265 266 267 268 268 269
292 292 293 293 293 293 293 293 294 294 294 294 294 294 293 292 292 291 291 290 289 289 289 287 286 284 283 280 278 276 274 271 269 266 265 265 264 263 264 264 266 267 266
294 293 294 294 294 294 294 294 295 295 295 295 295 294 294 294 293 293 292 291 291 289 288 287 285 282 279 277 276 276 274 270 267 263 262 262 261 261 262 265 266 265 265
294 294 295 295 296 296 296 296 296 296 296 296 296 296 295 295 295 295 293 292 290 288 287 287 285 281 277 275 273 272 271 268 266 264 260 259 261 263 265 266 265 265 266
295 296 296 296 297 297 297 297 297 298 298 298 297 297 296 296 295 295 294 292 289 287 286 285 283 280 276 272 272 271 269 267 264 262 259 260 263 265 267 266 266 266 267
296 297 297 297 298 298 299 298 299 299 299 299 299 297 297 296 296 296 295 293 290 288 287 285 280 276 273 270 272 273 267 265 263 262 260 260 263 266 267 268 268 268 267
Height
5858 5859 5860 5861 5861 5862 5862 5862 5862 5862 5862 5861 5861 5860 5859 5857 5856 5854 5852 5850 5848 5846 5844 5842 5840 5838 5835 5833 5831 5828 5826 5824 5822 5819 5818 5816 5815 5814 5813 5812 5811 5810 5810
5855 5856 5856 5857 5858 5858 5858 5858 5858 5858 5857 5857 5856 5855 5854 5852 5851 5849 5847 5845 5843 5841 5839 5837 5834 5832 5830 5827 5825 5823 5820 5818 5816 5813 5811 5809 5807 5806 5804 5803 5802 5801 5801
5851 5852 5852 5853 5853 5853 5854 5854 5853 5853 5852 5851 5850 5849 5848 5846 5845 5843 5841 5839 5837 5835 5832 5830 5828 5826 5823 5821 5818 5816 5814 5811 5809 5806 5804 5801 5799 5797 5795 5794 5793 5792 5791
5846 5846 5847 5848 5848 5848 5848 5848 5848 5847 5846 5845 5844 5843 5841 5840 5838 5836 5834 5832 5830 5828 5825 5823 5821 5819 5816 5813 5811 5808 5806 5803 5801 5799 5796 5793 5791 5788 5786 5785 5784 5782 5781
5840 5841 5841 5842 5842 5842 5842 5842 5841 5840 5839 5838 5837 5836 5834 5833 5831 5829 5827 5825 5823 5820 5818 5815 5813 5811 5808 5805 5803 5800 5798 5795 5793 5790 5787 5785 5782 5780 5778 5776 5774 5772 5771
5835 5835 5835 5836 5836 5835 5835 5835 5834 5833 5832 5831 5830 5828 5827 5825 5823 5821 5819 5816 5814 5812 5809 5807 5804 5802 5800 5797 5794 5791 5789 5786 5784 5781 5778 5775 5773 5770 5768 5766 5764 5762 5761
5828 5829 5829 5829 5829 5828 5828 5828 5827 5826 5825 5824 5822 5820 5819 5817 5815 5813 5810 5808 5805 5803 5801 5798 5795 5793 5790 5788 5785 5782 5779 5776 5774 5771 5769 5765 5763 5760 5758 5756 5754 5752 5750
5822 5821 5822 5821 5821 5821 5821 5820 5819 5818 5817 5815 5814 5812 5810 5808 5806 5804 5801 5798 5796 5794 5791 5789 5786 5783 5780 5777 5775 5772 5769 5766 5764 5761 5759 5755 5753 5750 5747 5745 5743 5741 5740
5815 5814 5814 5814 5813 5813 5812 5811 5810 5809 5808 5806 5805 5803 5801 5799 5796 5794 5791 5788 5786 5783 5781 5778 5776 5773 5770 5766 5763 5761 5758 5755 5752 5750 5747 5744 5742 5739 5736 5734 5732 5730 5728
5807 5806 5806 5805 5805 5804 5803 5802 5801 5800 5798 5796 5795 5793 5790 5788 5786 5783 5780 5777 5775 5772 5770 5767 5764 5761 5758 5755 5752 5749 5746 5744 5740 5738 5735 5733 5730 5727 5724 5722 5720 5718 5716
5798 5798 5797 5796 5796 5795 5794 5792 5791 5789 5788 5786 5784 5782 5779 5777 5774 5771 5768 5765 5763 5760 5757 5754 5752 5749 5746 5742 5739 5736 5734 5731 5728 5725 5722 5720 5717 5715 5712 5710 5708 5706 5704
5789 5788 5787 5786 5785 5784 5783 5782 5780 5779 5777 5774 5772 5770 5767 5764 5762 5758 5755 5752 5749 5746 5744 5741 5738 5735 5732 5729 5726 5723 5720 5716 5714 5711 5709 5706 5704 5702 5699 5697 5695 5693 5692
5779 5778 5777 5776 5775 5773 5772 5770 5769 5767 5764 5762 5760 5757 5754 5751 5748 5745 5741 5738 5734 5731 5728 5726 5723 5719 5716 5714 5711 5708 5704 5701 5699 5697 5695 5693 5690 5688 5686 5684 5682 5680 5679
5769 5768 5767 5766 5764 5762 5760 5759 5757 5754 5752 5749 5746 5743 5740 5737 5733 5730 5726 5723 5719 5715 5713 5710 5707 5703 5700 5697 5694 5691 5688 5686 5684 5682 5680 5678 5675 5673 5672 5670 5668 5667 5666
5758 5757 5756 5754 5753 5750 5748 5746 5744 5741 5738 5735 5732 5729 5726 5722 5718 5715 5710 5707 5703 5699 5695 5692 5689 5686 5683 5680 5677 5674 5672 5670 5667 5666 5664 5662 5660 5658 5657 5656 5654 5653 5652
5748 5746 5745 5743 5741 5739 5736 5733 5730 5728 5724 5721 5717 5713 5710 5706 5702 5698 5694 5690 5686 5681 5677 5674 5671 5668 5665 5662 5659 5657 5655 5653 5651 5650 5648 5647 5645 5644 5643 5642 5640 5640 5639
5737 5735 5733 5731 5728 5726 5723 5720 5717 5713 5709 5705 5701 5697 5693 5688 5684 5680 5675 5671 5667 5662 5658 5655 5651 5649 5646 5643 5641 5639 5637 5636 5635 5634 5633 5632 5630 5629 5628 5627 5626 5626 5625
5726 5724 5721 5719 5716 5712 5709 5705 5701 5698 5694 5689 5685 5680 5675 5671 5666 5661 5656 5651 5647 5642 5638 5635 5632 5629 5626 5624 5622 5620 5619 5619 5618 5618 5617 5616 5615 5614 5614 5613 5613 5612 5612
5715 5712 5709 5706 5702 5699 5695 5690 5686 5681 5677 5672 5667 5662 5656 5652 5647 5641 5636 5631 5627 5623 5618 5615 5612 5609 5607 5605 5603 5603 5602 5602 5602 5601 5601 5601 5601 5600 5600 5600 5599 5599 5599
5702 5699 5696 5692 5688 5683 5679 5674 5669 5664 5659 5654 5648 5643 5637 5632 5627 5622 5616 5611 5607 5603 5600 5596 5593 5591 5589 5588 5586 5586 5586 5585 5586 5586 5586 5586 5586 5586 5587 5587 5587 5587 5586
5688 5685 5681 5676 5672 5667 5662 5657 5651 5646 5640 5635 5629 5623 5618 5612 5608 5603 5598 5594 5589 5586 5583 5580 5577 5575 5573 5572 5571 5571 5570 5570 5571 5571 5572 5572 5573 5574 5574 5575 5575 5575 5575
5674 5669 5665 5660 5655 5650 5645 5639 5634 5628 5622 5616 5611 5605 5599 5595 5590 5586 5582 5577 5574 5570 5567 5565 5563 5561 5560 5559 5558 5557 5557 5557 5558 5559 5560 5560 5561 5562 5563 5564 5564 5564 5564
5658 5653 5649 5643 5638 5633 5628 5622 5616 5611 5605 5599 5594 5589 5584 5579 5574 5570 5566 5562 5559 5557 5554 5551 5550 5549 5548 5547 5546 5546 5546 5546 5547 5548 5549 5550 5551 5552 5552 5553 5553 5553 5553
5642 5637 5632 5627 5621 5616 5611 5606 5600 5595 5589 5584 5579 5574 5569 5565 5561 5557 5553 5550 5547 5544 5542 5540 5538 5537 5537 5536 5536 5536 5536 5537 5537 5538 5539 5540 5541 5542 5543 5543 5543 5543 5544
5626 5621 5616 5611 5606 5601 5595 5590 5585 5580 5575 5570 5566 5561 5557 5553 5549 5545 5542 5539 5536 5534 5532 5530 5529 5528 5528 5528 5528 5528 5528 5528 5529 5530 5531 5532 5533 5534 5534 5534 5534 5534 5534
5611 5606 5601 5596 5592 5587 5582 5577 5572 5567 5562 5558 5553 5549 5545 5541 5538 5535 5532 5529 5527 5525 5524 5522 5521 5521 5520 5520 5520 5520 5521 5521 5522 5523 5523 5524 5525 5525 5526 5526 5526 5525 5525